Rockwall, TX

4:13 AM CDT on May 23, 2017 (GMT -0500)
Rockwall

Weather History for KF46 - January, 2014

Change the Weather History Date:

Saturday, January 18, 2014

  Actual Average (KDFW) Record (KDFW)
Temperature  
Mean Temperature 51 °F -  
Max Temperature 66 °F 55 °F 80 °F (1923)
Min Temperature 36 °F 35 °F -1 °F (1930)
Degree Days  
Heating Degree Days 14    
Growing Degree Days 1 (Base 50)    
Moisture  
Dew Point 26 °F    
Average Humidity 40    
Maximum Humidity 57    
Minimum Humidity 24    
Precipitation  
Precipitation 0.00 in - - ()
Sea Level Pressure  
Sea Level Pressure 30.12 in    
Wind  
Wind Speed 10 mph (SW)    
Max Wind Speed 21 mph    
Max Gust Speed 26 mph    
Visibility 10 miles    
Events      
Averages and records for this station are not official NWS values.
T = Trace of Precipitation, MM = Missing Value Source: NWS Daily Summary

Daily Weather History Graph

Daily Weather History Graph

Search for Another Location

Airport or City:

Trip Planner

Search our weather history database for the weather conditions in past years. The results will help you decide how hot, cold, wet, or windy it might be!

Date:

Astronomy

Jan. 18, 2014 Rise Set
Actual Time 7:27 AM CST 5:44 PM CST
Civil Twilight 7:01 AM CST 6:11 PM CST
Nautical Twilight 6:31 AM CST 6:41 PM CST
Astronomical Twilight 6:01 AM CST 7:11 PM CST
Moon 8:17 PM CST (1/18) 8:37 AM CST (1/18)
Length of Visible Light 11h 10m
Length of Day
10h 17m
Waning Gibbous, 94% of the Moon is Illuminated
Jan 18
Waning Gibbous
Jan 23
Last Quarter
Jan 30
New
Feb 6
First Quarter
Feb 14
Full

Hourly Weather History & Observations

Time (CST) Temp. Windchill Dew Point Humidity Pressure Visibility Wind Dir Wind Speed Gust Speed Precip Events Conditions
12:15 AM 37.0 °F 31.0 °F 18.7 °F 48% 30.19 in 10.0 mi South 8.1 mph - N/A   Clear
12:35 AM 37.8 °F 31.3 °F 18.7 °F 46% 30.18 in 10.0 mi South 9.2 mph - N/A   Clear
12:55 AM 38.3 °F 31.9 °F 18.5 °F 45% 30.18 in 10.0 mi South 9.2 mph - N/A   Clear
1:15 AM 38.7 °F 31.4 °F 18.5 °F 44% 30.17 in 10.0 mi South 11.5 mph - N/A   Clear
1:35 AM 38.3 °F 30.9 °F 18.5 °F 45% 30.17 in 10.0 mi South 11.5 mph - N/A   Clear
1:55 AM 37.8 °F 30.7 °F 18.5 °F 46% 30.18 in 10.0 mi SSW 10.4 mph - N/A   Clear
2:15 AM 37.4 °F 30.3 °F 19.0 °F 48% 30.18 in 10.0 mi SSW 10.4 mph - N/A   Clear
2:35 AM 37.9 °F 30.9 °F 19.2 °F 47% 30.17 in 10.0 mi SSW 10.4 mph - N/A   Clear
2:55 AM 38.1 °F 31.2 °F 19.4 °F 47% 30.17 in 10.0 mi SSW 10.4 mph - N/A   Clear
3:15 AM 38.8 °F 31.6 °F 19.4 °F 46% 30.17 in 10.0 mi SSW 11.5 mph - N/A   Clear
3:35 AM 38.8 °F 31.2 °F 19.6 °F 46% 30.17 in 10.0 mi SSW 12.7 mph - N/A   Clear
3:55 AM 38.5 °F 31.1 °F 20.1 °F 48% 30.17 in 10.0 mi SSW 11.5 mph - N/A   Clear
4:15 AM 38.3 °F 30.9 °F 20.3 °F 48% 30.16 in 10.0 mi SSW 11.5 mph - N/A   Clear
4:35 AM 38.3 °F 30.9 °F 20.8 °F 50% 30.15 in 10.0 mi SSW 11.5 mph - N/A   Clear
4:55 AM 38.3 °F 30.9 °F 21.2 °F 50% 30.15 in 10.0 mi SSW 11.5 mph - N/A   Clear
5:15 AM 37.8 °F 30.7 °F 21.2 °F 51% 30.15 in 10.0 mi SSW 10.4 mph - N/A   Clear
5:35 AM 36.9 °F 30.7 °F 21.2 °F 53% 30.15 in 10.0 mi SSW 8.1 mph - N/A   Clear
5:55 AM 36.0 °F 29.0 °F 21.7 °F 56% 30.14 in 10.0 mi SSW 9.2 mph - N/A   Clear
6:15 AM 36.5 °F 29.2 °F 21.9 °F 56% 30.15 in 10.0 mi SSW 10.4 mph - N/A   Clear
6:35 AM 36.7 °F 29.9 °F 22.1 °F 56% 30.14 in 10.0 mi SSW 9.2 mph - N/A   Clear
6:55 AM 36.7 °F 29.4 °F 22.1 °F 56% 30.15 in 10.0 mi SSW 10.4 mph - N/A   Clear
7:15 AM 36.5 °F 29.7 °F 22.5 °F 57% 30.15 in 10.0 mi SSW 9.2 mph - N/A   Clear
7:35 AM 36.9 °F 30.1 °F 22.5 °F 56% 30.15 in 10.0 mi SSW 9.2 mph - N/A   Clear
7:55 AM 37.0 °F 30.4 °F 22.8 °F 56% 30.14 in 10.0 mi SSW 9.2 mph - N/A   Clear
8:15 AM 38.5 °F 31.6 °F 23.0 °F 54% 30.15 in 10.0 mi SSW 10.4 mph - N/A   Clear
8:35 AM 40.8 °F 34.1 °F 23.0 °F 49% 30.14 in 10.0 mi SSW 11.5 mph - N/A   Clear
8:55 AM 42.8 °F 36.2 °F 23.4 °F 46% 30.15 in 10.0 mi SSW 12.7 mph 18.4 mph N/A   Clear
9:15 AM 44.6 °F 38.4 °F 23.4 °F 43% 30.15 in 10.0 mi SSW 12.7 mph - N/A   Clear
9:35 AM 46.6 °F - 23.7 °F 41% 30.16 in 10.0 mi SSW 10.4 mph - N/A   Clear
9:55 AM 47.5 °F - 24.6 °F 41% 30.17 in 10.0 mi SSW 10.4 mph - N/A   Clear
10:15 AM 50.4 °F - 25.7 °F 38% 30.17 in 10.0 mi SSW 6.9 mph - N/A   Clear
10:35 AM 53.6 °F - 26.2 °F 35% 30.16 in 10.0 mi SSW 11.5 mph 16.1 mph N/A   Clear
10:55 AM 56.3 °F - 25.7 °F 31% 30.15 in 10.0 mi SSW 11.5 mph 19.6 mph N/A   Clear
11:15 AM 58.3 °F - 25.3 °F 28% 30.15 in 10.0 mi SSW 15.0 mph 21.9 mph N/A   Clear
11:35 AM 59.2 °F - 25.0 °F 27% 30.13 in 10.0 mi SSW 18.4 mph 26.5 mph N/A   Clear
11:55 AM 60.1 °F - 24.8 °F 26% 30.12 in 10.0 mi SW 20.7 mph 26.5 mph N/A   Clear
12:15 PM 61.0 °F - 24.4 °F 25% 30.11 in 10.0 mi SW 15.0 mph 26.5 mph N/A   Clear
12:35 PM 61.3 °F - 25.3 °F 25% 30.10 in 10.0 mi SW 16.1 mph 25.3 mph N/A   Clear
12:55 PM 62.6 °F - 25.9 °F 25% 30.08 in 10.0 mi SW 17.3 mph 21.9 mph N/A   Clear
1:15 PM 63.0 °F - 25.7 °F 24% 30.07 in 10.0 mi SW 17.3 mph 21.9 mph N/A   Clear
1:35 PM 63.3 °F - 27.1 °F 25% 30.06 in 10.0 mi WSW 13.8 mph 23.0 mph N/A   Clear
1:55 PM 63.9 °F - 27.3 °F 25% 30.05 in 10.0 mi SW 13.8 mph 17.3 mph N/A   Clear
2:15 PM 63.9 °F - 27.1 °F 25% 30.04 in 10.0 mi SW 16.1 mph - N/A   Clear
2:35 PM 65.5 °F - 28.6 °F 25% 30.04 in 10.0 mi SW 11.5 mph - N/A   Clear
2:55 PM 65.5 °F - 28.4 °F 25% 30.03 in 10.0 mi SW 12.7 mph 19.6 mph N/A   Clear
3:15 PM 66.0 °F - 28.8 °F 25% 30.03 in 10.0 mi SW 11.5 mph 18.4 mph N/A   Clear
3:35 PM 66.0 °F - 29.3 °F 25% 30.03 in 10.0 mi WSW 11.5 mph - N/A   Clear
3:55 PM 65.7 °F - 30.2 °F 27% 30.02 in 10.0 mi SW 11.5 mph - N/A   Clear
4:15 PM 66.2 °F - 30.6 °F 26% 30.02 in 10.0 mi WSW 10.4 mph - N/A   Clear
4:35 PM 65.7 °F - 30.9 °F 27% 30.03 in 10.0 mi West 10.4 mph - N/A   Clear
4:55 PM 65.3 °F - 31.1 °F 28% 30.03 in 10.0 mi WSW 6.9 mph - N/A   Clear
5:15 PM 64.4 °F - 30.7 °F 28% 30.04 in 10.0 mi West 6.9 mph - N/A   Clear
5:35 PM 63.3 °F - 30.2 °F 29% 30.04 in 10.0 mi WSW 8.1 mph - N/A   Clear
5:55 PM 61.7 °F - 30.0 °F 30% 30.04 in 10.0 mi WSW 6.9 mph - N/A   Clear
6:15 PM 59.4 °F - 30.6 °F 34% 30.04 in 10.0 mi SW 6.9 mph - N/A   Clear
6:35 PM 59.4 °F - 30.0 °F 33% 30.04 in 10.0 mi SW 9.2 mph - N/A   Clear
6:55 PM 59.0 °F - 30.2 °F 34% 30.05 in 10.0 mi West 6.9 mph - N/A   Clear
7:15 PM 57.2 °F - 31.1 °F 37% 30.06 in 10.0 mi West 5.8 mph - N/A   Clear
7:35 PM 56.5 °F - 30.9 °F 38% 30.07 in 10.0 mi WNW 3.5 mph - N/A   Clear
7:55 PM 56.3 °F - 30.2 °F 37% 30.07 in 10.0 mi West 3.5 mph - N/A   Clear
8:15 PM 55.9 °F - 30.6 °F 38% 30.08 in 10.0 mi West 5.8 mph - N/A   Clear
8:35 PM 53.4 °F - 31.1 °F 43% 30.09 in 10.0 mi NW 4.6 mph - N/A   Clear
8:55 PM 52.5 °F - 31.3 °F 44% 30.11 in 10.0 mi NNW 9.2 mph - N/A   Clear
9:15 PM 52.9 °F - 30.7 °F 43% 30.12 in 10.0 mi NNW 6.9 mph - N/A   Clear
9:35 PM 52.2 °F - 30.0 °F 43% 30.12 in 10.0 mi NNW 4.6 mph - N/A   Clear
9:55 PM 51.6 °F - 30.0 °F 44% 30.13 in 10.0 mi NNW 3.5 mph - N/A   Clear
10:15 PM 50.7 °F - 30.0 °F 45% 30.14 in 10.0 mi NNW 3.5 mph - N/A   Clear
10:35 PM 49.6 °F - 29.8 °F 47% 30.15 in 10.0 mi NNW 4.6 mph - N/A   Clear
10:55 PM 47.3 °F - 30.4 °F 52% 30.16 in 10.0 mi North 5.8 mph - N/A   Clear
11:15 PM 49.3 °F - 29.7 °F 47% 30.16 in 10.0 mi North 6.9 mph - N/A   Clear
11:35 PM 48.2 °F - 29.1 °F 48% 30.17 in 10.0 mi North 6.9 mph - N/A   Clear
11:55 PM 47.1 °F - 28.9 °F 49% 30.16 in 10.0 mi North 6.9 mph - N/A   Clear